Terug naar catalogus

COSMOS 2616

ActiefMilitairSSO
NORAD 68827·PAYLOAD·🇷🇺 Russia

Gelanceerd Apr 23, 2026 vanaf Plesetsk Cosmodrome

Loading…

Volgende Passages (komende 24 uur)

TLE

VersSource: Space-Track

Epoch: Sep 14, 2026, 19:41 UTC

1 68827U 26090B   26257.82036781  .00042340  24374-5  17051-3 0  9990
2 68827  96.6379 172.9110 0015346  63.3464 296.9378 15.86427750 22866

Volg COSMOS 2616 in realtime met AllMySat

Download on the App Store